ARG1361 SKBO-SABE

Flight info

Callsign ARG1361
Flight time 5h 38m
Altitude 33000
Route POVSO5U POVSO DCT SJE UP530 LET UP525 SPRIN/N0470F350 UP525 RCO UL417 IMBER/N0457F370 UL417 PUPSI DCT TOPOG UL404 ISOPO UT672 MULTA UW24 SNT SNT9R
Aircraft B38M/M-SDE1FGHILORVWXY/HB1

Departure

Time 2026-05-07 15:36
Airport El Dorado International Airport (SKBO)

Arrival

Time 2026-05-07 21:15
Airport Aeroparque Jorge Newbery (SABE)
Time Latitude Longitude Altitude Speed Heading
2026-05-07 14:53 4.69944 -74.14075 8375 ft 0 kts 218°
2026-05-07 15:22 4.69954 -74.14066 8375 ft 4 kts 218°
2026-05-07 15:22 4.69975 -74.14049 8372 ft 4 kts 219°
2026-05-07 15:23 4.69993 -74.14036 8375 ft 3 kts 207°
2026-05-07 15:23 4.70003 -74.14025 8375 ft 4 kts 288°
2026-05-07 15:23 4.69993 -74.14002 8374 ft 4 kts 298°
2026-05-07 15:23 4.69977 -74.13983 8375 ft 4 kts 338°
2026-05-07 15:24 4.69958 -74.13981 8375 ft 0 kts 24°
2026-05-07 15:28 4.69967 -74.13980 8375 ft 1 kts 359°
2026-05-07 15:28 4.69990 -74.13999 8374 ft 7 kts 309°
2026-05-07 15:28 4.70020 -74.14034 8374 ft 7 kts 316°
2026-05-07 15:29 4.70059 -74.14043 8373 ft 5 kts 15°
2026-05-07 15:29 4.70093 -74.14039 8375 ft 5 kts 350°
2026-05-07 15:29 4.70130 -74.14064 8375 ft 9 kts 314°
2026-05-07 15:29 4.70171 -74.14113 8375 ft 9 kts 308°
2026-05-07 15:30 4.70207 -74.14159 8373 ft 8 kts 307°
2026-05-07 15:30 4.70241 -74.14203 8375 ft 8 kts 308°
2026-05-07 15:30 4.70271 -74.14243 8373 ft 7 kts 307°
2026-05-07 15:30 4.70298 -74.14279 8375 ft 6 kts 307°
2026-05-07 15:31 4.70326 -74.14316 8374 ft 8 kts 309°
2026-05-07 15:31 4.70393 -74.14339 8375 ft 13 kts 355°
2026-05-07 15:31 4.70479 -74.14403 8375 ft 18 kts 309°
2026-05-07 15:31 4.70568 -74.14519 8375 ft 23 kts 308°
2026-05-07 15:32 4.70662 -74.14643 8376 ft 22 kts 307°
2026-05-07 15:32 4.70758 -74.14756 8375 ft 21 kts 310°
2026-05-07 15:32 4.70837 -74.14871 8374 ft 19 kts 306°
2026-05-07 15:32 4.70914 -74.14976 8374 ft 18 kts 306°
2026-05-07 15:33 4.70988 -74.15075 8375 ft 17 kts 307°
2026-05-07 15:33 4.71058 -74.15168 8375 ft 16 kts 307°
2026-05-07 15:33 4.71146 -74.15222 8375 ft 15 kts 350°
2026-05-07 15:33 4.71246 -74.15235 8373 ft 14 kts 353°
2026-05-07 15:34 4.71324 -74.15198 8373 ft 12 kts 82°
2026-05-07 15:34 4.71314 -74.15174 8372 ft 0 kts 126°
2026-05-07 15:35 4.71281 -74.15130 8373 ft 29 kts 127°
2026-05-07 15:35 4.71053 -74.14830 8372 ft 78 kts 127°
2026-05-07 15:35 4.70643 -74.14285 8374 ft 117 kts 127°
2026-05-07 15:36 4.70083 -74.13542 8373 ft 149 kts 127°
2026-05-07 15:36 4.69405 -74.12647 8372 ft 172 kts 128°
2026-05-07 15:36 4.68655 -74.11708 8624 ft 171 kts 130°
2026-05-07 15:36 4.67903 -74.10806 9007 ft 169 kts 137°
2026-05-07 15:37 4.66836 -74.10305 9017 ft 181 kts 175°
2026-05-07 15:37 4.65652 -74.10653 9180 ft 183 kts 221°
2026-05-07 15:37 4.64870 -74.11661 9454 ft 184 kts 238°
2026-05-07 15:37 4.64274 -74.12815 9630 ft 193 kts 244°
2026-05-07 15:38 4.63695 -74.14119 9625 ft 219 kts 245°
2026-05-07 15:38 4.63035 -74.15605 9513 ft 253 kts 242°
2026-05-07 15:38 4.62321 -74.17307 9627 ft 273 kts 249°
2026-05-07 15:38 4.61671 -74.19140 10002 ft 285 kts 250°
2026-05-07 15:39 4.61006 -74.21033 10441 ft 294 kts 249°
2026-05-07 15:39 4.60282 -74.23052 10407 ft 321 kts 248°
2026-05-07 15:39 4.59268 -74.24979 11071 ft 312 kts 229°
2026-05-07 15:39 4.57724 -74.26489 11612 ft 314 kts 212°
2026-05-07 15:40 4.55756 -74.27467 11918 ft 322 kts 193°
2026-05-07 15:40 4.53503 -74.27763 12185 ft 333 kts 179°
2026-05-07 15:40 4.51197 -74.27758 12919 ft 327 kts 174°
2026-05-07 15:40 4.48985 -74.27524 14042 ft 312 kts 167°
2026-05-07 15:41 4.46870 -74.27053 14658 ft 317 kts 161°
2026-05-07 15:41 4.44697 -74.26499 14804 ft 337 kts 165°
2026-05-07 15:41 4.42331 -74.26042 14915 ft 355 kts 168°
2026-05-07 15:41 4.39844 -74.25676 15209 ft 365 kts 170°
2026-05-07 15:42 4.37306 -74.25374 15721 ft 370 kts 171°
2026-05-07 15:42 4.34728 -74.25107 16204 ft 373 kts 172°
2026-05-07 15:42 4.32142 -74.24857 16730 ft 376 kts 172°
2026-05-07 15:42 4.29517 -74.24616 17165 ft 380 kts 172°
2026-05-07 15:43 4.26877 -74.24381 17684 ft 382 kts 172°
2026-05-07 15:43 4.24251 -74.24151 18137 ft 386 kts 172°
2026-05-07 15:43 4.21568 -74.23916 18571 ft 388 kts 172°
2026-05-07 15:43 4.18871 -74.23680 18951 ft 391 kts 172°
2026-05-07 15:44 4.16150 -74.23442 19362 ft 393 kts 172°
2026-05-07 15:44 4.13418 -74.23203 19730 ft 396 kts 173°
2026-05-07 15:44 4.10667 -74.22964 20126 ft 398 kts 173°
2026-05-07 15:44 4.07903 -74.22722 20505 ft 400 kts 172°
2026-05-07 15:45 4.05122 -74.22479 20878 ft 402 kts 172°
2026-05-07 15:45 4.02363 -74.22238 21256 ft 404 kts 172°
2026-05-07 15:45 3.99552 -74.21992 21598 ft 407 kts 172°
2026-05-07 15:45 3.96754 -74.21644 21924 ft 407 kts 163°
2026-05-07 15:46 3.91939 -74.18882 22635 ft 401 kts 133°
2026-05-07 15:46 3.89974 -74.16877 22862 ft 407 kts 132°
2026-05-07 15:46 3.88021 -74.14799 23077 ft 410 kts 131°
2026-05-07 15:47 3.86096 -74.12698 23492 ft 410 kts 131°
2026-05-07 15:47 3.84191 -74.10591 23657 ft 416 kts 130°
2026-05-07 15:47 3.82264 -74.08442 24070 ft 414 kts 130°
2026-05-07 15:47 3.80340 -74.06287 24241 ft 418 kts 130°
2026-05-07 15:48 3.78403 -74.04114 24467 ft 419 kts 130°
2026-05-07 15:48 3.76463 -74.01938 24813 ft 419 kts 130°
2026-05-07 15:48 3.74518 -73.99757 25089 ft 421 kts 130°
2026-05-07 15:48 3.72560 -73.97559 25264 ft 426 kts 130°
2026-05-07 15:49 3.70579 -73.95335 25499 ft 428 kts 130°
2026-05-07 15:49 3.68622 -73.93141 25778 ft 428 kts 130°
2026-05-07 15:49 3.66632 -73.90910 26003 ft 432 kts 131°
2026-05-07 15:49 3.64625 -73.88659 26202 ft 434 kts 131°
2026-05-07 15:50 3.62621 -73.86411 26504 ft 435 kts 131°
2026-05-07 15:50 3.60603 -73.84147 26768 ft 436 kts 130°
2026-05-07 15:50 3.58583 -73.81884 27029 ft 438 kts 131°
2026-05-07 15:50 3.56547 -73.79600 27246 ft 440 kts 131°
2026-05-07 15:51 3.54511 -73.77317 27509 ft 440 kts 131°
2026-05-07 15:51 3.52468 -73.75027 27762 ft 442 kts 131°
2026-05-07 15:51 3.50419 -73.72731 27998 ft 443 kts 131°
2026-05-07 15:51 3.48385 -73.70450 28156 ft 447 kts 131°
2026-05-07 15:52 3.46319 -73.68134 28474 ft 446 kts 131°
2026-05-07 15:52 3.44244 -73.65808 28650 ft 449 kts 131°
2026-05-07 15:52 3.42152 -73.63464 28807 ft 452 kts 131°
2026-05-07 15:52 3.40053 -73.61112 29050 ft 454 kts 131°
2026-05-07 15:53 3.37950 -73.58756 29298 ft 455 kts 131°
2026-05-07 15:53 3.35839 -73.56390 29494 ft 457 kts 131°
2026-05-07 15:53 3.33717 -73.54013 29711 ft 458 kts 131°
2026-05-07 15:53 3.31593 -73.51633 29958 ft 459 kts 131°
2026-05-07 15:54 3.29462 -73.49247 30125 ft 461 kts 131°
2026-05-07 15:54 3.27351 -73.46882 30300 ft 463 kts 131°
2026-05-07 15:54 3.25204 -73.44477 30461 ft 464 kts 131°
2026-05-07 15:54 3.23051 -73.42066 30655 ft 465 kts 131°
2026-05-07 15:55 3.20890 -73.39645 30789 ft 467 kts 131°
2026-05-07 15:55 3.18722 -73.37217 30972 ft 468 kts 131°
2026-05-07 15:55 3.16548 -73.34783 31118 ft 470 kts 131°
2026-05-07 15:55 3.14371 -73.32345 31337 ft 470 kts 131°
2026-05-07 15:56 3.12189 -73.29903 31489 ft 472 kts 131°
2026-05-07 15:56 3.10033 -73.27489 31746 ft 471 kts 132°
2026-05-07 15:56 3.07856 -73.25052 32027 ft 469 kts 132°
2026-05-07 15:56 3.05685 -73.22620 32249 ft 469 kts 132°
2026-05-07 15:57 3.03509 -73.20184 32424 ft 470 kts 132°
2026-05-07 15:57 3.01334 -73.17750 32645 ft 469 kts 132°
2026-05-07 15:57 2.99160 -73.15316 32856 ft 469 kts 132°
2026-05-07 15:57 2.96979 -73.12877 33000 ft 470 kts 132°
2026-05-07 15:58 2.94799 -73.10437 33039 ft 470 kts 132°
2026-05-07 15:58 2.90482 -73.05605 33025 ft 468 kts 131°
2026-05-07 15:59 2.86145 -73.00754 33022 ft 467 kts 132°
2026-05-07 15:59 2.81816 -72.95912 33020 ft 467 kts 131°
2026-05-07 16:00 2.77477 -72.91058 33019 ft 469 kts 132°
2026-05-07 16:00 2.73121 -72.86187 33036 ft 470 kts 132°
2026-05-07 16:01 2.68796 -72.81350 33040 ft 469 kts 132°
2026-05-07 16:01 2.64447 -72.76488 33044 ft 469 kts 132°
2026-05-07 16:02 2.60102 -72.71629 33052 ft 469 kts 132°
2026-05-07 16:02 2.55751 -72.66766 33045 ft 469 kts 132°
2026-05-07 16:03 2.50846 -72.62628 33071 ft 466 kts 149°
2026-05-07 16:03 2.45279 -72.59270 33030 ft 468 kts 149°
2026-05-07 16:04 2.39677 -72.55947 33024 ft 468 kts 149°
2026-05-07 16:04 2.34070 -72.52632 33027 ft 469 kts 149°
2026-05-07 16:05 2.28458 -72.49315 33006 ft 468 kts 149°
2026-05-07 16:05 2.22889 -72.46024 33009 ft 468 kts 149°
2026-05-07 16:06 2.17293 -72.42717 33001 ft 467 kts 149°
2026-05-07 16:06 2.11669 -72.39393 33014 ft 471 kts 149°
2026-05-07 16:07 2.06028 -72.36061 33007 ft 471 kts 149°
2026-05-07 16:07 2.00443 -72.32761 33007 ft 470 kts 149°
2026-05-07 16:08 1.94803 -72.29429 33006 ft 471 kts 149°
2026-05-07 16:08 1.89159 -72.26095 33005 ft 471 kts 149°
2026-05-07 16:09 1.83506 -72.22756 33011 ft 473 kts 149°
2026-05-07 16:09 1.77878 -72.19432 33006 ft 474 kts 149°
2026-05-07 16:10 1.72196 -72.16077 33008 ft 474 kts 149°
2026-05-07 16:10 1.66514 -72.12721 33009 ft 474 kts 149°
2026-05-07 16:11 1.60835 -72.09368 33009 ft 474 kts 149°
2026-05-07 16:11 1.55196 -72.06038 33004 ft 474 kts 149°
2026-05-07 16:12 1.49514 -72.02684 33002 ft 474 kts 149°
2026-05-07 16:12 1.43836 -71.99331 32993 ft 474 kts 149°
2026-05-07 16:13 1.38152 -71.95976 33000 ft 475 kts 149°
2026-05-07 16:13 1.32327 -71.93025 33027 ft 474 kts 155°
2026-05-07 16:14 1.26343 -71.90241 32995 ft 474 kts 155°
2026-05-07 16:14 1.20377 -71.87420 32989 ft 475 kts 155°
2026-05-07 16:15 1.14413 -71.84593 33007 ft 474 kts 155°
2026-05-07 16:15 1.08487 -71.81785 32999 ft 474 kts 155°
2026-05-07 16:16 1.02525 -71.78959 32998 ft 474 kts 155°
2026-05-07 16:16 0.96563 -71.76134 32995 ft 474 kts 155°
2026-05-07 16:17 0.90607 -71.73312 33005 ft 474 kts 155°
2026-05-07 16:17 0.84682 -71.70504 33002 ft 474 kts 155°
2026-05-07 16:18 0.78716 -71.67677 33002 ft 474 kts 155°
2026-05-07 16:18 0.72751 -71.64850 33004 ft 474 kts 155°
2026-05-07 16:19 0.66801 -71.62031 32997 ft 472 kts 155°
2026-05-07 16:19 0.60911 -71.59240 33000 ft 472 kts 155°
2026-05-07 16:20 0.54984 -71.56432 33005 ft 472 kts 155°
2026-05-07 16:20 0.49051 -71.53621 32995 ft 471 kts 155°
2026-05-07 16:21 0.43128 -71.50815 32996 ft 471 kts 155°
2026-05-07 16:21 0.37241 -71.48026 32996 ft 471 kts 155°
2026-05-07 16:22 0.31315 -71.45218 32993 ft 472 kts 155°
2026-05-07 16:22 0.25383 -71.42408 32992 ft 472 kts 155°
2026-05-07 16:23 0.19464 -71.39604 32994 ft 472 kts 155°
2026-05-07 16:23 0.13573 -71.36813 32997 ft 472 kts 155°
2026-05-07 16:24 0.07644 -71.34004 32993 ft 472 kts 155°
2026-05-07 16:24 0.01714 -71.31194 32992 ft 472 kts 155°
2026-05-07 16:25 -0.04214 -71.28387 32986 ft 470 kts 155°
2026-05-07 16:25 -0.10119 -71.25588 33000 ft 470 kts 155°
2026-05-07 16:26 -0.15989 -71.22812 33001 ft 470 kts 155°
2026-05-07 16:26 -0.21901 -71.20019 33000 ft 470 kts 155°
2026-05-07 16:27 -0.27809 -71.17228 32991 ft 470 kts 155°
2026-05-07 16:27 -0.33719 -71.14436 32988 ft 470 kts 155°
2026-05-07 16:28 -0.39590 -71.11662 32997 ft 470 kts 155°
2026-05-07 16:28 -0.45495 -71.08872 32991 ft 470 kts 155°
2026-05-07 16:29 -0.51402 -71.06081 32990 ft 470 kts 155°
2026-05-07 16:29 -0.57309 -71.03290 32983 ft 470 kts 155°
2026-05-07 16:30 -0.63178 -71.00517 32995 ft 470 kts 155°
2026-05-07 16:30 -0.69074 -70.97731 32997 ft 469 kts 155°
2026-05-07 16:31 -0.74979 -70.94941 32984 ft 469 kts 155°
2026-05-07 16:31 -0.80874 -70.92155 32990 ft 469 kts 155°
2026-05-07 16:32 -0.86731 -70.89387 32987 ft 469 kts 155°
2026-05-07 16:32 -0.92627 -70.86601 32985 ft 469 kts 155°
2026-05-07 16:33 -0.98541 -70.83806 32987 ft 470 kts 155°
2026-05-07 16:33 -1.04455 -70.81011 32987 ft 470 kts 155°
2026-05-07 16:34 -1.10369 -70.78215 32984 ft 470 kts 155°
2026-05-07 16:34 -1.16238 -70.75442 32981 ft 471 kts 155°
2026-05-07 16:35 -1.22156 -70.72645 32981 ft 471 kts 155°
2026-05-07 16:35 -1.28076 -70.69847 32983 ft 471 kts 155°
2026-05-07 16:36 -1.33996 -70.67049 32986 ft 471 kts 155°
2026-05-07 16:36 -1.39866 -70.64274 32982 ft 471 kts 155°
2026-05-07 16:37 -1.45783 -70.61476 32988 ft 471 kts 155°
2026-05-07 16:37 -1.51704 -70.58677 32983 ft 471 kts 155°
2026-05-07 16:38 -1.57626 -70.55877 32981 ft 471 kts 155°
2026-05-07 16:38 -1.63506 -70.53097 32982 ft 471 kts 155°
2026-05-07 16:39 -1.69426 -70.50297 32985 ft 471 kts 155°
2026-05-07 16:39 -1.75348 -70.47497 32989 ft 471 kts 155°
2026-05-07 16:40 -1.81268 -70.44697 32989 ft 471 kts 155°
2026-05-07 16:40 -1.87186 -70.41898 32988 ft 470 kts 155°
2026-05-07 16:41 -1.93060 -70.39119 32989 ft 470 kts 155°
2026-05-07 16:41 -1.98978 -70.36319 32987 ft 470 kts 155°
2026-05-07 16:42 -2.04887 -70.33524 32980 ft 470 kts 155°
2026-05-07 16:42 -2.10804 -70.30725 32978 ft 471 kts 155°
2026-05-07 16:43 -2.16682 -70.27943 32984 ft 471 kts 155°
2026-05-07 16:43 -2.22603 -70.25142 32983 ft 471 kts 155°
2026-05-07 16:44 -2.28519 -70.22342 32981 ft 471 kts 155°
2026-05-07 16:44 -2.34442 -70.19538 32983 ft 471 kts 155°
2026-05-07 16:45 -2.40326 -70.16754 32982 ft 471 kts 155°
2026-05-07 16:45 -2.46249 -70.13950 32979 ft 471 kts 155°
2026-05-07 16:46 -2.52172 -70.11146 32979 ft 471 kts 155°
2026-05-07 16:46 -2.58089 -70.08344 32984 ft 470 kts 155°
2026-05-07 16:47 -2.64000 -70.05545 32975 ft 470 kts 155°
2026-05-07 16:47 -2.69900 -70.02825 32969 ft 469 kts 162°
2026-05-07 16:47 -2.73069 -70.02154 32969 ft 465 kts 176°
2026-05-07 16:48 -2.76300 -70.01920 32982 ft 467 kts 176°
2026-05-07 16:48 -2.82785 -70.01501 32984 ft 467 kts 177°
2026-05-07 16:49 -2.89276 -70.01135 32982 ft 467 kts 177°
2026-05-07 16:49 -2.95722 -70.00778 32982 ft 467 kts 177°
2026-05-07 16:50 -3.02214 -70.00417 32985 ft 467 kts 177°
2026-05-07 16:50 -3.08703 -70.00057 32984 ft 467 kts 177°
2026-05-07 16:51 -3.15197 -69.99697 32984 ft 467 kts 177°
2026-05-07 16:51 -3.21690 -69.99337 32983 ft 467 kts 177°
2026-05-07 16:52 -3.28140 -69.98978 32984 ft 468 kts 177°
2026-05-07 16:52 -3.34643 -69.98618 32982 ft 468 kts 177°
2026-05-07 16:53 -3.41138 -69.98257 32984 ft 468 kts 177°
2026-05-07 16:53 -3.46546 -69.97957 32985 ft 468 kts 177°
2026-05-07 16:54 -3.54099 -69.97537 32983 ft 468 kts 177°
2026-05-07 16:54 -3.60599 -69.97177 32980 ft 468 kts 177°
2026-05-07 16:55 -3.66005 -69.96877 32983 ft 468 kts 177°
2026-05-07 16:55 -3.72507 -69.96515 32982 ft 468 kts 177°
2026-05-07 16:56 -3.80067 -69.96095 32977 ft 468 kts 177°
2026-05-07 16:56 -3.88726 -69.95614 32984 ft 468 kts 177°
2026-05-07 16:57 -3.95231 -69.95252 32986 ft 468 kts 177°
2026-05-07 16:57 -4.02790 -69.94832 32990 ft 468 kts 177°
2026-05-07 16:58 -4.08195 -69.94532 32994 ft 468 kts 177°
2026-05-07 16:58 -4.14702 -69.94170 32995 ft 468 kts 177°
2026-05-07 16:59 -4.21059 -69.93039 33003 ft 467 kts 160°
2026-05-07 16:59 -4.27234 -69.90929 33016 ft 469 kts 161°
2026-05-07 17:00 -4.33403 -69.88773 33017 ft 469 kts 161°
2026-05-07 17:00 -4.39507 -69.86617 33007 ft 468 kts 161°
2026-05-07 17:01 -4.45650 -69.84445 33011 ft 467 kts 161°
2026-05-07 17:01 -4.51786 -69.82274 32984 ft 468 kts 161°
2026-05-07 17:02 -4.57940 -69.80098 32983 ft 468 kts 161°
2026-05-07 17:02 -4.64049 -69.77943 32983 ft 469 kts 161°
2026-05-07 17:03 -4.70190 -69.75775 32983 ft 468 kts 161°
2026-05-07 17:03 -4.76336 -69.73606 32982 ft 468 kts 161°
2026-05-07 17:04 -4.82478 -69.71437 32981 ft 468 kts 161°
2026-05-07 17:04 -4.88576 -69.69283 32982 ft 468 kts 161°
2026-05-07 17:05 -4.94710 -69.67104 33351 ft 468 kts 161°
2026-05-07 17:05 -4.97782 -69.66006 33595 ft 469 kts 161°
2026-05-07 17:05 -5.00852 -69.64909 33834 ft 468 kts 161°
2026-05-07 17:06 -5.03920 -69.63812 34067 ft 468 kts 161°
2026-05-07 17:06 -5.06985 -69.62716 34277 ft 467 kts 161°
2026-05-07 17:06 -5.10043 -69.61622 34484 ft 467 kts 161°
2026-05-07 17:06 -5.13063 -69.60543 34686 ft 467 kts 161°
2026-05-07 17:07 -5.16119 -69.59450 34889 ft 466 kts 161°
2026-05-07 17:07 -5.19174 -69.58357 34984 ft 467 kts 161°
2026-05-07 17:07 -5.25278 -69.56173 34972 ft 464 kts 161°
2026-05-07 17:08 -5.31365 -69.53995 34974 ft 465 kts 161°
2026-05-07 17:08 -5.37415 -69.51830 34974 ft 465 kts 161°
2026-05-07 17:09 -5.43507 -69.49650 34975 ft 466 kts 161°
2026-05-07 17:09 -5.49607 -69.47466 34974 ft 466 kts 161°
2026-05-07 17:10 -5.55711 -69.45280 34974 ft 466 kts 161°
2026-05-07 17:10 -5.61773 -69.43109 34971 ft 466 kts 161°
2026-05-07 17:11 -5.67875 -69.40922 34971 ft 466 kts 161°
2026-05-07 17:11 -5.73978 -69.38736 34971 ft 466 kts 162°
2026-05-07 17:12 -5.80080 -69.36548 34970 ft 466 kts 162°
2026-05-07 17:12 -5.86173 -69.34364 34968 ft 466 kts 162°
2026-05-07 17:13 -5.92237 -69.32189 34968 ft 466 kts 162°
2026-05-07 17:13 -5.98340 -69.30001 34968 ft 466 kts 162°
2026-05-07 17:14 -6.04440 -69.27812 34970 ft 466 kts 162°
2026-05-07 17:14 -6.10534 -69.25625 34968 ft 466 kts 162°
2026-05-07 17:15 -6.16606 -69.23446 34966 ft 467 kts 162°
2026-05-07 17:15 -6.22720 -69.21251 34966 ft 466 kts 162°
2026-05-07 17:16 -6.28826 -69.19033 34968 ft 466 kts 161°
2026-05-07 17:16 -6.34932 -69.16804 34968 ft 467 kts 161°
2026-05-07 17:17 -6.41006 -69.14586 34962 ft 467 kts 162°
2026-05-07 17:17 -6.47121 -69.12353 34961 ft 468 kts 161°
2026-05-07 17:18 -6.53237 -69.10119 34962 ft 468 kts 162°
2026-05-07 17:18 -6.59339 -69.07889 34960 ft 468 kts 161°
2026-05-07 17:19 -6.65456 -69.05653 34962 ft 468 kts 162°
2026-05-07 17:19 -6.71537 -69.03454 34961 ft 467 kts 162°
2026-05-07 17:20 -6.77673 -69.01275 34958 ft 468 kts 162°
2026-05-07 17:20 -6.83818 -68.99086 34960 ft 469 kts 162°
2026-05-07 17:21 -6.89965 -68.96897 34956 ft 469 kts 162°
2026-05-07 17:21 -6.96068 -68.94722 34957 ft 469 kts 162°
2026-05-07 17:22 -7.02216 -68.92531 34957 ft 469 kts 162°
2026-05-07 17:22 -7.08363 -68.90339 34958 ft 469 kts 162°
2026-05-07 17:23 -7.14510 -68.88147 34958 ft 470 kts 162°
2026-05-07 17:23 -7.20641 -68.85960 34953 ft 471 kts 162°
2026-05-07 17:24 -7.26807 -68.83759 34955 ft 469 kts 161°
2026-05-07 17:24 -7.32961 -68.81563 34955 ft 469 kts 162°
2026-05-07 17:25 -7.39115 -68.79365 34955 ft 469 kts 161°
2026-05-07 17:25 -7.45228 -68.77183 34955 ft 469 kts 161°
2026-05-07 17:26 -7.51380 -68.74985 34951 ft 469 kts 162°
2026-05-07 17:26 -7.57535 -68.72785 34953 ft 469 kts 161°
2026-05-07 17:27 -7.63691 -68.70585 34950 ft 470 kts 162°
2026-05-07 17:27 -7.69846 -68.68377 34950 ft 470 kts 161°
2026-05-07 17:28 -7.75958 -68.66172 34947 ft 469 kts 161°
2026-05-07 17:28 -7.82109 -68.63952 34947 ft 470 kts 161°
2026-05-07 17:29 -7.88263 -68.61732 34947 ft 470 kts 161°
2026-05-07 17:29 -7.94379 -68.59524 34946 ft 470 kts 161°
2026-05-07 17:30 -8.00526 -68.57303 34947 ft 470 kts 161°
2026-05-07 17:30 -8.06683 -68.55080 34945 ft 470 kts 161°
2026-05-07 17:31 -8.12843 -68.52854 34943 ft 470 kts 162°
2026-05-07 17:31 -8.18954 -68.50645 34936 ft 469 kts 162°
2026-05-07 17:32 -8.25093 -68.48425 34942 ft 469 kts 162°
2026-05-07 17:32 -8.31238 -68.46202 34940 ft 469 kts 161°
2026-05-07 17:33 -8.37381 -68.43980 34936 ft 469 kts 162°
2026-05-07 17:33 -8.43524 -68.41756 34935 ft 469 kts 162°
2026-05-07 17:34 -8.49624 -68.39547 34939 ft 469 kts 162°
2026-05-07 17:34 -8.55766 -68.37323 34939 ft 469 kts 162°
2026-05-07 17:35 -8.61907 -68.35097 34936 ft 469 kts 162°
2026-05-07 17:35 -8.68049 -68.32871 34935 ft 469 kts 162°
2026-05-07 17:36 -8.74147 -68.30660 34932 ft 469 kts 162°
2026-05-07 17:36 -8.80287 -68.28433 34934 ft 469 kts 162°
2026-05-07 17:37 -8.86427 -68.26205 34931 ft 469 kts 162°
2026-05-07 17:37 -8.92572 -68.23975 34930 ft 469 kts 162°
2026-05-07 17:38 -8.98670 -68.21761 34930 ft 469 kts 162°
2026-05-07 17:38 -9.04813 -68.19530 34930 ft 469 kts 162°
2026-05-07 17:39 -9.10954 -68.17298 34926 ft 469 kts 162°
2026-05-07 17:39 -9.17096 -68.15066 34929 ft 469 kts 162°
2026-05-07 17:40 -9.23204 -68.12848 34927 ft 469 kts 162°
2026-05-07 17:40 -9.29385 -68.10715 34929 ft 469 kts 163°
2026-05-07 17:41 -9.35564 -68.08579 34928 ft 469 kts 163°
2026-05-07 17:41 -9.41741 -68.06440 34928 ft 469 kts 163°
2026-05-07 17:42 -9.47881 -68.04313 34925 ft 469 kts 163°
2026-05-07 17:42 -9.54062 -68.02171 34930 ft 470 kts 163°
2026-05-07 17:43 -9.60249 -68.00027 34929 ft 470 kts 163°
2026-05-07 17:43 -9.66431 -67.97883 34924 ft 470 kts 163°
2026-05-07 17:44 -9.72572 -67.95752 34926 ft 470 kts 163°
2026-05-07 17:44 -9.78758 -67.93606 34926 ft 470 kts 163°
2026-05-07 17:45 -9.84938 -67.91460 34967 ft 469 kts 163°
2026-05-07 17:45 -9.91149 -67.89473 34971 ft 468 kts 165°
2026-05-07 17:46 -9.97329 -67.87545 34963 ft 468 kts 165°
2026-05-07 17:46 -10.03552 -67.85597 34952 ft 468 kts 165°
2026-05-07 17:47 -10.09772 -67.83648 34941 ft 468 kts 165°
2026-05-07 17:47 -10.15995 -67.81696 34932 ft 468 kts 165°
2026-05-07 17:48 -10.22168 -67.79761 34923 ft 467 kts 166°
2026-05-07 17:48 -10.28386 -67.77810 34924 ft 468 kts 165°
2026-05-07 17:49 -10.34596 -67.75860 34921 ft 467 kts 166°
2026-05-07 17:49 -10.40810 -67.73909 34919 ft 467 kts 165°
2026-05-07 17:50 -10.47026 -67.71957 34921 ft 467 kts 166°
2026-05-07 17:50 -10.53195 -67.70018 34920 ft 468 kts 165°
2026-05-07 17:51 -10.59418 -67.68062 34925 ft 468 kts 166°
2026-05-07 17:51 -10.65655 -67.66145 34917 ft 468 kts 166°
2026-05-07 17:52 -10.71888 -67.64228 34922 ft 468 kts 166°
2026-05-07 17:52 -10.78081 -67.62322 34920 ft 468 kts 166°
2026-05-07 17:53 -10.84315 -67.60402 34921 ft 468 kts 166°
2026-05-07 17:53 -10.90548 -67.58482 34919 ft 468 kts 166°
2026-05-07 17:54 -10.96778 -67.56562 34916 ft 468 kts 166°
2026-05-07 17:54 -11.02970 -67.54652 34917 ft 468 kts 166°
2026-05-07 17:55 -11.09200 -67.52730 34916 ft 467 kts 166°
2026-05-07 17:55 -11.15423 -67.50810 34913 ft 467 kts 166°
2026-05-07 17:56 -11.21658 -67.48885 34915 ft 469 kts 166°
2026-05-07 17:56 -11.27860 -67.46969 34913 ft 469 kts 166°
2026-05-07 17:57 -11.33079 -67.45356 34912 ft 469 kts 166°
2026-05-07 17:57 -11.40335 -67.43112 34910 ft 469 kts 166°
2026-05-07 17:58 -11.46577 -67.41182 34913 ft 469 kts 166°
2026-05-07 17:58 -11.52817 -67.39250 34912 ft 468 kts 166°
2026-05-07 17:59 -11.59010 -67.37333 34906 ft 468 kts 166°
2026-05-07 17:59 -11.65243 -67.35402 34904 ft 468 kts 166°
2026-05-07 18:00 -11.71478 -67.33470 34906 ft 468 kts 166°
2026-05-07 18:00 -11.77657 -67.31554 34904 ft 468 kts 166°
2026-05-07 18:01 -11.83887 -67.29622 34903 ft 468 kts 166°
2026-05-07 18:01 -11.90109 -67.27691 34901 ft 467 kts 166°
2026-05-07 18:02 -11.99435 -67.24795 34894 ft 467 kts 166°
2026-05-07 18:03 -12.05613 -67.22875 34895 ft 467 kts 166°
2026-05-07 18:03 -12.11832 -67.20942 34892 ft 467 kts 166°
2026-05-07 18:04 -12.18068 -67.19003 34890 ft 470 kts 166°
2026-05-07 18:04 -12.24338 -67.17051 34890 ft 471 kts 166°
2026-05-07 18:05 -12.30564 -67.15113 34887 ft 471 kts 166°
2026-05-07 18:05 -12.36833 -67.13160 34884 ft 471 kts 166°
2026-05-07 18:06 -12.43104 -67.11206 34883 ft 471 kts 166°
2026-05-07 18:06 -12.49368 -67.09252 34885 ft 470 kts 166°
2026-05-07 18:07 -12.55620 -67.07302 34875 ft 469 kts 165°
2026-05-07 18:07 -12.61827 -67.05365 34876 ft 470 kts 165°
2026-05-07 18:08 -12.68079 -67.03413 34878 ft 469 kts 165°
2026-05-07 18:08 -12.74316 -67.01465 34876 ft 469 kts 165°
2026-05-07 18:09 -12.80562 -66.99512 34878 ft 469 kts 165°
2026-05-07 18:09 -12.86744 -66.97578 34869 ft 467 kts 165°
2026-05-07 18:10 -12.92957 -66.95634 34871 ft 467 kts 165°
2026-05-07 18:10 -12.99163 -66.93692 34872 ft 467 kts 165°
2026-05-07 18:11 -13.05375 -66.91746 34876 ft 467 kts 165°
2026-05-07 18:11 -13.11550 -66.89832 34874 ft 467 kts 165°
2026-05-07 18:12 -13.17773 -66.87913 34871 ft 467 kts 166°
2026-05-07 18:12 -13.23995 -66.85992 34872 ft 467 kts 166°
2026-05-07 18:13 -13.30215 -66.84070 34867 ft 467 kts 166°
2026-05-07 18:13 -13.36391 -66.82161 34870 ft 467 kts 166°
2026-05-07 18:14 -13.42612 -66.80237 34867 ft 467 kts 166°
2026-05-07 18:14 -13.48829 -66.78313 34870 ft 468 kts 167°
2026-05-07 18:15 -13.55074 -66.76380 34864 ft 469 kts 167°
2026-05-07 18:15 -13.61314 -66.74447 34865 ft 468 kts 167°
2026-05-07 18:16 -13.67513 -66.72525 34859 ft 469 kts 167°
2026-05-07 18:16 -13.73747 -66.70592 34859 ft 469 kts 167°
2026-05-07 18:17 -13.79993 -66.68654 34857 ft 469 kts 167°
2026-05-07 18:17 -13.86244 -66.66713 34856 ft 469 kts 167°
2026-05-07 18:18 -13.92452 -66.64785 34853 ft 469 kts 167°
2026-05-07 18:18 -13.98704 -66.62842 34853 ft 469 kts 167°
2026-05-07 18:19 -14.04956 -66.60897 34854 ft 469 kts 167°
2026-05-07 18:19 -14.11208 -66.58952 34854 ft 469 kts 167°
2026-05-07 18:20 -14.17418 -66.57019 34846 ft 469 kts 167°
2026-05-07 18:20 -14.23669 -66.55071 34848 ft 469 kts 167°
2026-05-07 18:21 -14.29918 -66.53124 34847 ft 469 kts 167°
2026-05-07 18:21 -14.36166 -66.51175 34845 ft 469 kts 167°
2026-05-07 18:22 -14.42373 -66.49238 34847 ft 469 kts 167°
2026-05-07 18:22 -14.48624 -66.47286 34841 ft 469 kts 167°
2026-05-07 18:23 -14.54874 -66.45335 34840 ft 469 kts 167°
2026-05-07 18:23 -14.61125 -66.43386 34837 ft 469 kts 167°
2026-05-07 18:24 -14.67376 -66.41435 34829 ft 469 kts 167°
2026-05-07 18:24 -14.73584 -66.39497 34838 ft 469 kts 167°
2026-05-07 18:25 -14.79834 -66.37545 34829 ft 469 kts 167°
2026-05-07 18:25 -14.86082 -66.35592 34829 ft 469 kts 167°
2026-05-07 18:26 -14.92321 -66.33641 34825 ft 469 kts 167°
2026-05-07 18:26 -14.98525 -66.31699 34826 ft 469 kts 167°
2026-05-07 18:27 -15.04774 -66.29742 34827 ft 469 kts 167°
2026-05-07 18:27 -15.11020 -66.27785 34821 ft 469 kts 167°
2026-05-07 18:28 -15.17262 -66.25828 34820 ft 469 kts 167°
2026-05-07 18:28 -15.23467 -66.23882 34819 ft 469 kts 167°
2026-05-07 18:29 -15.29716 -66.21920 34814 ft 469 kts 167°
2026-05-07 18:29 -15.35960 -66.19959 34823 ft 469 kts 167°
2026-05-07 18:30 -15.42211 -66.17994 34813 ft 469 kts 167°
2026-05-07 18:30 -15.48472 -66.16058 34814 ft 469 kts 167°
2026-05-07 18:31 -15.54689 -66.14138 34810 ft 469 kts 167°
2026-05-07 18:31 -15.60946 -66.12204 34805 ft 469 kts 167°
2026-05-07 18:32 -15.67205 -66.10268 34809 ft 469 kts 167°
2026-05-07 18:32 -15.73473 -66.08327 34805 ft 470 kts 167°
2026-05-07 18:33 -15.79695 -66.06400 34797 ft 470 kts 167°
2026-05-07 18:33 -15.85963 -66.04457 34801 ft 470 kts 167°
2026-05-07 18:34 -15.92232 -66.02513 34796 ft 470 kts 167°
2026-05-07 18:34 -15.98461 -66.00580 34810 ft 470 kts 167°
2026-05-07 18:35 -16.04725 -65.98635 34793 ft 470 kts 167°
2026-05-07 18:35 -16.10993 -65.96687 34792 ft 470 kts 167°
2026-05-07 18:36 -16.17257 -65.94739 34798 ft 470 kts 167°
2026-05-07 18:36 -16.23524 -65.92789 34795 ft 470 kts 167°
2026-05-07 18:37 -16.29746 -65.90851 34823 ft 470 kts 167°
2026-05-07 18:37 -16.36000 -65.88903 34812 ft 470 kts 167°
2026-05-07 18:38 -16.42268 -65.86948 34833 ft 470 kts 167°
2026-05-07 18:38 -16.48536 -65.84993 34807 ft 470 kts 167°
2026-05-07 18:39 -16.54759 -65.83050 34824 ft 470 kts 167°
2026-05-07 18:39 -16.61029 -65.81091 34829 ft 470 kts 168°
2026-05-07 18:40 -16.67299 -65.79131 34848 ft 471 kts 168°
2026-05-07 18:40 -16.73569 -65.77169 34852 ft 471 kts 168°
2026-05-07 18:41 -16.79799 -65.75219 34888 ft 470 kts 168°
2026-05-07 18:41 -16.86077 -65.73262 34840 ft 470 kts 168°
2026-05-07 18:42 -16.92340 -65.71314 34885 ft 470 kts 168°
2026-05-07 18:42 -16.98599 -65.69365 34894 ft 469 kts 168°
2026-05-07 18:43 -17.04819 -65.67427 34888 ft 470 kts 168°
2026-05-07 18:43 -17.11099 -65.65478 34890 ft 471 kts 168°
2026-05-07 18:44 -17.17376 -65.63530 34903 ft 470 kts 168°
2026-05-07 18:44 -17.23664 -65.61577 34920 ft 472 kts 168°
2026-05-07 18:45 -17.29897 -65.59640 34919 ft 469 kts 168°
2026-05-07 18:45 -17.36154 -65.57693 34933 ft 470 kts 168°
2026-05-07 18:46 -17.42425 -65.55742 34924 ft 470 kts 168°
2026-05-07 18:46 -17.48711 -65.53807 35139 ft 471 kts 168°
2026-05-07 18:46 -17.51850 -65.52850 35376 ft 471 kts 168°
2026-05-07 18:47 -17.54951 -65.51903 35626 ft 471 kts 168°
2026-05-07 18:47 -17.58095 -65.50943 35899 ft 470 kts 168°
2026-05-07 18:47 -17.61232 -65.49984 36153 ft 469 kts 168°
2026-05-07 18:47 -17.64363 -65.49027 36334 ft 469 kts 168°
2026-05-07 18:48 -17.67492 -65.48063 36562 ft 469 kts 168°
2026-05-07 18:48 -17.70624 -65.47095 36752 ft 469 kts 168°
2026-05-07 18:48 -17.73755 -65.46127 36889 ft 469 kts 168°
2026-05-07 18:49 -17.80001 -65.44196 36793 ft 465 kts 168°
2026-05-07 18:49 -17.86171 -65.42286 36821 ft 467 kts 168°
2026-05-07 18:50 -17.92407 -65.40354 36761 ft 467 kts 168°
2026-05-07 18:50 -17.98643 -65.38422 36760 ft 468 kts 168°
2026-05-07 18:51 -18.04882 -65.36486 36727 ft 468 kts 168°
2026-05-07 18:51 -18.11081 -65.34562 36724 ft 468 kts 168°
2026-05-07 18:52 -18.17329 -65.32622 36704 ft 468 kts 169°
2026-05-07 18:52 -18.23566 -65.30683 36699 ft 468 kts 168°
2026-05-07 18:53 -18.29811 -65.28740 36695 ft 468 kts 168°
2026-05-07 18:53 -18.35994 -65.26815 36712 ft 466 kts 168°
2026-05-07 18:54 -18.42220 -65.24874 36714 ft 466 kts 169°
2026-05-07 18:54 -18.48474 -65.22925 36699 ft 470 kts 169°
2026-05-07 18:55 -18.54750 -65.20967 36701 ft 470 kts 169°
2026-05-07 18:55 -18.60981 -65.19021 36702 ft 470 kts 169°
2026-05-07 18:56 -18.67259 -65.17059 36712 ft 471 kts 169°
2026-05-07 18:56 -18.73541 -65.15094 36721 ft 470 kts 169°
2026-05-07 18:57 -18.79823 -65.13128 36701 ft 472 kts 169°
2026-05-07 18:57 -18.86126 -65.11154 36727 ft 472 kts 169°
2026-05-07 18:58 -18.92360 -65.09218 36713 ft 470 kts 169°
2026-05-07 18:58 -18.98643 -65.07264 36942 ft 471 kts 169°
2026-05-07 18:59 -19.04922 -65.05310 37035 ft 468 kts 169°
2026-05-07 18:59 -19.11146 -65.03372 37110 ft 466 kts 169°
2026-05-07 19:00 -19.17325 -65.01440 37152 ft 466 kts 169°
2026-05-07 19:00 -19.23551 -64.99483 37162 ft 467 kts 169°
2026-05-07 19:01 -19.29780 -64.97525 37110 ft 467 kts 169°
2026-05-07 19:01 -19.36018 -64.95561 37026 ft 467 kts 170°
2026-05-07 19:02 -19.42206 -64.93648 36917 ft 467 kts 170°
2026-05-07 19:02 -19.48435 -64.91724 36806 ft 467 kts 170°
2026-05-07 19:03 -19.54657 -64.89798 36754 ft 465 kts 170°
2026-05-07 19:03 -19.60867 -64.87876 36773 ft 465 kts 170°
2026-05-07 19:04 -19.67081 -64.85951 36773 ft 472 kts 169°
2026-05-07 19:04 -19.73398 -64.83992 36774 ft 474 kts 169°
2026-05-07 19:05 -19.79721 -64.82030 36777 ft 474 kts 169°
2026-05-07 19:05 -19.86070 -64.80059 36745 ft 477 kts 169°
2026-05-07 19:06 -19.92439 -64.78081 36863 ft 476 kts 170°
2026-05-07 19:06 -20.01926 -64.75127 36773 ft 474 kts 170°
2026-05-07 19:07 -20.08258 -64.73154 36751 ft 474 kts 170°
2026-05-07 19:07 -20.14572 -64.71185 36736 ft 472 kts 170°
2026-05-07 19:08 -20.20847 -64.69227 36747 ft 474 kts 169°
2026-05-07 19:08 -20.27170 -64.67253 36734 ft 473 kts 169°
2026-05-07 19:09 -20.33497 -64.65278 36734 ft 474 kts 170°
2026-05-07 19:09 -20.39845 -64.63316 36675 ft 476 kts 170°
2026-05-07 19:10 -20.46153 -64.61364 36741 ft 477 kts 170°
2026-05-07 19:10 -20.52531 -64.59387 36649 ft 478 kts 170°
2026-05-07 19:11 -20.58953 -64.57396 36643 ft 482 kts 170°
2026-05-07 19:11 -20.65373 -64.55403 36632 ft 479 kts 170°
2026-05-07 19:12 -20.71793 -64.53409 36647 ft 483 kts 170°
2026-05-07 19:12 -20.78205 -64.51416 36627 ft 483 kts 171°
2026-05-07 19:13 -20.84692 -64.49398 36629 ft 488 kts 171°
2026-05-07 19:13 -20.91222 -64.47363 36653 ft 490 kts 170°
2026-05-07 19:14 -20.97743 -64.45337 36619 ft 486 kts 171°
2026-05-07 19:14 -21.04216 -64.43324 36671 ft 489 kts 170°
2026-05-07 19:15 -21.10745 -64.41291 36651 ft 488 kts 172°
2026-05-07 19:15 -21.17238 -64.39269 36669 ft 485 kts 172°
2026-05-07 19:16 -21.23751 -64.37238 36555 ft 488 kts 172°
2026-05-07 19:16 -21.27006 -64.36223 36727 ft 487 kts 172°
2026-05-07 19:16 -21.30225 -64.35219 36678 ft 490 kts 170°
2026-05-07 19:17 -21.36775 -64.33178 36685 ft 491 kts 171°
2026-05-07 19:17 -21.43361 -64.31145 36703 ft 494 kts 171°
2026-05-07 19:18 -21.49971 -64.29099 36717 ft 495 kts 171°
2026-05-07 19:18 -21.56533 -64.27066 36733 ft 493 kts 171°
2026-05-07 19:19 -21.63099 -64.25030 36793 ft 491 kts 172°
2026-05-07 19:19 -21.69693 -64.22983 36749 ft 494 kts 172°
2026-05-07 19:20 -21.76308 -64.20928 36773 ft 494 kts 172°
2026-05-07 19:20 -21.82911 -64.18874 36769 ft 494 kts 172°
2026-05-07 19:21 -21.89467 -64.16833 36745 ft 493 kts 172°
2026-05-07 19:21 -21.96064 -64.14778 36779 ft 496 kts 172°
2026-05-07 19:22 -22.02689 -64.12712 36770 ft 496 kts 172°
2026-05-07 19:22 -22.09314 -64.10642 36758 ft 497 kts 173°
2026-05-07 19:23 -22.15902 -64.08584 36775 ft 496 kts 172°
2026-05-07 19:23 -22.22518 -64.06513 36799 ft 495 kts 173°
2026-05-07 19:24 -22.29103 -64.04333 36737 ft 495 kts 172°
2026-05-07 19:24 -22.35716 -64.02145 36769 ft 499 kts 172°
2026-05-07 19:25 -22.42303 -63.99963 36750 ft 499 kts 172°
2026-05-07 19:25 -22.48943 -63.97762 36812 ft 499 kts 172°
2026-05-07 19:26 -22.55562 -63.95565 36751 ft 496 kts 172°
2026-05-07 19:26 -22.62179 -63.93367 36761 ft 498 kts 172°
2026-05-07 19:27 -22.68748 -63.91182 36755 ft 497 kts 172°
2026-05-07 19:27 -22.75361 -63.88981 36790 ft 497 kts 172°
2026-05-07 19:28 -22.81979 -63.86775 36751 ft 498 kts 172°
2026-05-07 19:28 -22.88603 -63.84566 36747 ft 498 kts 172°
2026-05-07 19:29 -22.95174 -63.82372 36748 ft 497 kts 172°
2026-05-07 19:29 -23.01793 -63.80159 36748 ft 498 kts 172°
2026-05-07 19:30 -23.08398 -63.77949 36754 ft 498 kts 172°
2026-05-07 19:30 -23.15014 -63.75733 36757 ft 498 kts 172°
2026-05-07 19:31 -23.21583 -63.73530 36733 ft 497 kts 172°
2026-05-07 19:31 -23.28212 -63.71306 36753 ft 499 kts 172°
2026-05-07 19:32 -23.34843 -63.69078 36755 ft 498 kts 172°
2026-05-07 19:32 -23.41455 -63.66854 36768 ft 498 kts 172°
2026-05-07 19:33 -23.48029 -63.64640 36769 ft 497 kts 172°
2026-05-07 19:33 -23.54643 -63.62411 36775 ft 497 kts 172°
2026-05-07 19:34 -23.61224 -63.60189 36805 ft 491 kts 172°
2026-05-07 19:34 -23.67727 -63.57994 36785 ft 489 kts 172°
2026-05-07 19:35 -23.74232 -63.55795 36794 ft 489 kts 172°
2026-05-07 19:35 -23.80681 -63.53612 36800 ft 489 kts 172°
2026-05-07 19:36 -23.87165 -63.51414 36828 ft 484 kts 171°
2026-05-07 19:36 -23.93566 -63.49244 36807 ft 481 kts 171°
2026-05-07 19:37 -23.99914 -63.47089 36806 ft 482 kts 171°
2026-05-07 19:37 -24.06311 -63.44915 36810 ft 481 kts 171°
2026-05-07 19:38 -24.12706 -63.42738 36826 ft 481 kts 171°
2026-05-07 19:38 -24.19099 -63.40562 36822 ft 482 kts 171°
2026-05-07 19:39 -24.25457 -63.38394 36817 ft 482 kts 171°
2026-05-07 19:39 -24.30824 -63.36563 36823 ft 482 kts 171°
2026-05-07 19:40 -24.38268 -63.34018 36876 ft 482 kts 171°
2026-05-07 19:40 -24.44647 -63.31838 36825 ft 479 kts 171°
2026-05-07 19:41 -24.50974 -63.29673 36836 ft 480 kts 171°
2026-05-07 19:41 -24.57345 -63.27489 36835 ft 480 kts 171°
2026-05-07 19:42 -24.63714 -63.25303 36878 ft 480 kts 171°
2026-05-07 19:42 -24.70095 -63.23111 36843 ft 481 kts 171°
2026-05-07 19:43 -24.76444 -63.20928 36843 ft 481 kts 171°
2026-05-07 19:43 -24.82832 -63.18728 36845 ft 481 kts 171°
2026-05-07 19:44 -24.89224 -63.16525 36903 ft 481 kts 171°
2026-05-07 19:44 -24.95621 -63.14318 36852 ft 482 kts 171°
2026-05-07 19:45 -25.01981 -63.12123 36855 ft 483 kts 171°
2026-05-07 19:45 -25.08424 -63.09894 36855 ft 486 kts 171°
2026-05-07 19:46 -25.14878 -63.07660 36859 ft 486 kts 171°
2026-05-07 19:46 -25.21317 -63.05429 36855 ft 485 kts 171°
2026-05-07 19:47 -25.27716 -63.03209 36860 ft 485 kts 171°
2026-05-07 19:47 -25.34159 -63.00971 36862 ft 485 kts 171°
2026-05-07 19:48 -25.40602 -62.98731 36858 ft 485 kts 171°
2026-05-07 19:48 -25.47038 -62.96491 36868 ft 484 kts 171°
2026-05-07 19:49 -25.53407 -62.94272 36866 ft 483 kts 171°
2026-05-07 19:49 -25.59822 -62.92034 36864 ft 483 kts 171°
2026-05-07 19:50 -25.66225 -62.89798 36869 ft 483 kts 171°
2026-05-07 19:50 -25.72637 -62.87557 36867 ft 483 kts 171°
2026-05-07 19:51 -25.78987 -62.85215 36867 ft 484 kts 169°
2026-05-07 19:51 -25.85378 -62.82842 36867 ft 484 kts 169°
2026-05-07 19:52 -25.91792 -62.80461 36868 ft 489 kts 170°
2026-05-07 19:52 -25.98208 -62.78074 36872 ft 488 kts 169°
2026-05-07 19:53 -26.04635 -62.75682 36879 ft 488 kts 169°
2026-05-07 19:53 -26.11070 -62.73284 36871 ft 488 kts 169°
2026-05-07 19:54 -26.17504 -62.70883 36876 ft 488 kts 169°
2026-05-07 19:54 -26.23895 -62.68496 36879 ft 488 kts 169°
2026-05-07 19:55 -26.30326 -62.66091 36877 ft 488 kts 169°
2026-05-07 19:55 -26.36757 -62.63683 36876 ft 488 kts 169°
2026-05-07 19:56 -26.42092 -62.61683 36877 ft 488 kts 169°
2026-05-07 19:56 -26.49562 -62.58880 36876 ft 486 kts 168°
2026-05-07 19:57 -26.55971 -62.56472 36883 ft 486 kts 168°
2026-05-07 19:57 -26.62375 -62.54063 36881 ft 486 kts 168°
2026-05-07 19:58 -26.67704 -62.52056 36868 ft 486 kts 169°
2026-05-07 19:58 -26.75204 -62.49228 36883 ft 490 kts 168°
2026-05-07 19:59 -26.80618 -62.47185 36879 ft 490 kts 168°
2026-05-07 19:59 -26.87033 -62.44760 36881 ft 490 kts 168°
2026-05-07 20:00 -26.93493 -62.42316 36887 ft 490 kts 168°
2026-05-07 20:00 -27.01013 -62.39467 36884 ft 491 kts 168°
2026-05-07 20:01 -27.06399 -62.37424 36883 ft 492 kts 168°
2026-05-07 20:01 -27.12867 -62.34968 36881 ft 491 kts 168°
2026-05-07 20:02 -27.19343 -62.32506 36969 ft 491 kts 168°
2026-05-07 20:02 -27.25854 -62.30028 36870 ft 495 kts 168°
2026-05-07 20:03 -27.32340 -62.27556 36886 ft 496 kts 168°
2026-05-07 20:03 -27.38865 -62.25066 36884 ft 495 kts 168°
2026-05-07 20:04 -27.45392 -62.22572 36925 ft 496 kts 168°
2026-05-07 20:04 -27.51952 -62.20064 36891 ft 500 kts 168°
2026-05-07 20:05 -27.58497 -62.17557 36887 ft 501 kts 168°
2026-05-07 20:05 -27.65087 -62.15030 36883 ft 500 kts 168°
2026-05-07 20:06 -27.71691 -62.12495 36896 ft 503 kts 168°
2026-05-07 20:06 -27.78338 -62.09939 36891 ft 505 kts 168°
2026-05-07 20:07 -27.84952 -62.07393 36887 ft 505 kts 168°
2026-05-07 20:07 -27.91602 -62.04830 36888 ft 505 kts 168°
2026-05-07 20:08 -27.98263 -62.02259 36892 ft 506 kts 167°
2026-05-07 20:08 -28.04928 -61.99683 36891 ft 506 kts 167°
2026-05-07 20:09 -28.11551 -61.97121 36887 ft 506 kts 167°
2026-05-07 20:10 -28.21545 -61.93247 36887 ft 506 kts 167°
2026-05-07 20:10 -28.28205 -61.90662 36863 ft 508 kts 167°
2026-05-07 20:11 -28.34881 -61.88067 36886 ft 512 kts 167°
2026-05-07 20:11 -28.41609 -61.85448 36947 ft 511 kts 167°
2026-05-07 20:12 -28.48382 -61.82845 36872 ft 512 kts 171°
2026-05-07 20:12 -28.51839 -61.82164 36897 ft 501 kts 181°
2026-05-07 20:12 -28.55310 -61.81662 36866 ft 504 kts 179°
2026-05-07 20:13 -28.62211 -61.80623 36883 ft 504 kts 180°
2026-05-07 20:13 -28.69159 -61.79583 36900 ft 503 kts 179°
2026-05-07 20:14 -28.76101 -61.78545 36877 ft 503 kts 179°
2026-05-07 20:14 -28.83041 -61.77505 36873 ft 503 kts 179°
2026-05-07 20:15 -28.89932 -61.76471 36871 ft 503 kts 179°
2026-05-07 20:15 -28.96869 -61.75428 36868 ft 503 kts 179°
2026-05-07 20:16 -29.03805 -61.74385 36872 ft 503 kts 179°
2026-05-07 20:16 -29.10741 -61.73340 36869 ft 502 kts 179°
2026-05-07 20:17 -29.17625 -61.72299 36902 ft 502 kts 179°
2026-05-07 20:17 -29.24517 -61.71260 36869 ft 498 kts 179°
2026-05-07 20:18 -29.31397 -61.70219 36868 ft 499 kts 179°
2026-05-07 20:18 -29.38277 -61.69179 36867 ft 498 kts 179°
2026-05-07 20:19 -29.45101 -61.68145 36873 ft 497 kts 178°
2026-05-07 20:19 -29.51930 -61.67110 36865 ft 496 kts 178°
2026-05-07 20:20 -29.58774 -61.66070 36865 ft 496 kts 178°
2026-05-07 20:20 -29.65615 -61.65030 36896 ft 496 kts 178°
2026-05-07 20:21 -29.72380 -61.64000 36854 ft 492 kts 178°
2026-05-07 20:21 -29.79152 -61.62968 36866 ft 492 kts 178°
2026-05-07 20:22 -29.85942 -61.61931 36859 ft 492 kts 178°
2026-05-07 20:22 -29.92724 -61.60893 36878 ft 491 kts 178°
2026-05-07 20:23 -29.99449 -61.59865 36861 ft 490 kts 178°
2026-05-07 20:23 -30.06216 -61.58827 36854 ft 491 kts 178°
2026-05-07 20:24 -30.12982 -61.57788 36855 ft 491 kts 178°
2026-05-07 20:24 -30.19749 -61.56748 36855 ft 490 kts 177°
2026-05-07 20:25 -30.26456 -61.55715 36856 ft 490 kts 177°
2026-05-07 20:25 -30.33222 -61.54673 36851 ft 490 kts 177°
2026-05-07 20:26 -30.39981 -61.53628 36871 ft 490 kts 176°
2026-05-07 20:26 -30.46741 -61.52584 36850 ft 490 kts 176°
2026-05-07 20:27 -30.53453 -61.51541 36845 ft 490 kts 176°
2026-05-07 20:27 -30.60213 -61.50485 36844 ft 490 kts 176°
2026-05-07 20:28 -30.66969 -61.49428 36839 ft 490 kts 176°
2026-05-07 20:28 -30.73725 -61.48377 36847 ft 490 kts 176°
2026-05-07 20:29 -30.80433 -61.47333 36846 ft 490 kts 176°
2026-05-07 20:29 -30.87184 -61.46280 36862 ft 489 kts 176°
2026-05-07 20:30 -30.93918 -61.45229 36838 ft 487 kts 176°
2026-05-07 20:30 -31.00641 -61.44178 36835 ft 488 kts 176°
2026-05-07 20:31 -31.07321 -61.43133 36831 ft 488 kts 176°
2026-05-07 20:31 -31.14042 -61.42079 36833 ft 487 kts 176°
2026-05-07 20:32 -31.20756 -61.41025 36830 ft 487 kts 176°
2026-05-07 20:32 -31.27466 -61.39970 36826 ft 487 kts 176°
2026-05-07 20:33 -31.34039 -61.38270 36865 ft 491 kts 163°
2026-05-07 20:33 -31.40537 -61.35837 36820 ft 489 kts 165°
2026-05-07 20:34 -31.47029 -61.33389 36796 ft 490 kts 165°
2026-05-07 20:34 -31.53548 -61.30919 36812 ft 496 kts 165°
2026-05-07 20:35 -31.60101 -61.28430 36816 ft 499 kts 165°
2026-05-07 20:35 -31.66701 -61.25921 36816 ft 498 kts 165°
2026-05-07 20:36 -31.73287 -61.23414 36808 ft 498 kts 165°
2026-05-07 20:36 -31.79879 -61.20899 36819 ft 498 kts 165°
2026-05-07 20:37 -31.86417 -61.18403 36806 ft 497 kts 164°
2026-05-07 20:37 -31.92994 -61.15888 36803 ft 497 kts 164°
2026-05-07 20:38 -31.99559 -61.13373 36822 ft 497 kts 164°
2026-05-07 20:38 -32.06076 -61.10872 36793 ft 495 kts 164°
2026-05-07 20:39 -32.12620 -61.08358 36789 ft 495 kts 164°
2026-05-07 20:39 -32.19167 -61.05839 36792 ft 495 kts 164°
2026-05-07 20:40 -32.25717 -61.03314 36769 ft 497 kts 164°
2026-05-07 20:40 -32.32289 -61.00778 36788 ft 503 kts 164°
2026-05-07 20:41 -32.38965 -60.98198 36775 ft 505 kts 164°
2026-05-07 20:41 -32.45638 -60.95613 36791 ft 504 kts 164°
2026-05-07 20:42 -32.52283 -60.93037 36785 ft 502 kts 164°
2026-05-07 20:42 -32.58882 -60.90475 36780 ft 502 kts 164°
2026-05-07 20:43 -32.65520 -60.87893 36782 ft 502 kts 164°
2026-05-07 20:43 -32.72162 -60.85305 36770 ft 502 kts 164°
2026-05-07 20:44 -32.78803 -60.82714 36773 ft 502 kts 163°
2026-05-07 20:44 -32.85395 -60.80139 36774 ft 502 kts 163°
2026-05-07 20:45 -32.91906 -60.77155 36760 ft 503 kts 149°
2026-05-07 20:45 -32.97978 -60.72959 36746 ft 507 kts 151°
2026-05-07 20:46 -33.04137 -60.68735 36768 ft 514 kts 150°
2026-05-07 20:46 -33.10271 -60.64496 36764 ft 512 kts 150°
2026-05-07 20:47 -33.16427 -60.60233 36757 ft 511 kts 150°
2026-05-07 20:47 -33.22582 -60.55964 36755 ft 511 kts 150°
2026-05-07 20:48 -33.28687 -60.51721 36767 ft 511 kts 150°
2026-05-07 20:48 -33.34828 -60.47448 36755 ft 510 kts 150°
2026-05-07 20:49 -33.40980 -60.43160 36745 ft 514 kts 150°
2026-05-07 20:49 -33.47188 -60.38825 36706 ft 516 kts 150°
2026-05-07 20:49 -33.50280 -60.36662 36007 ft 515 kts 150°
2026-05-07 20:50 -33.53340 -60.34519 35212 ft 519 kts 149°
2026-05-07 20:50 -33.56460 -60.32334 34535 ft 519 kts 148°
2026-05-07 20:50 -33.59567 -60.30157 34020 ft 515 kts 148°
2026-05-07 20:50 -33.62647 -60.27997 33521 ft 511 kts 148°
2026-05-07 20:51 -33.65703 -60.25853 32958 ft 508 kts 148°
2026-05-07 20:51 -33.68747 -60.23715 32389 ft 505 kts 148°
2026-05-07 20:51 -33.71772 -60.21588 31848 ft 503 kts 148°
2026-05-07 20:51 -33.74785 -60.19468 31329 ft 501 kts 148°
2026-05-07 20:52 -33.77746 -60.17383 30812 ft 499 kts 148°
2026-05-07 20:52 -33.80741 -60.15269 30263 ft 498 kts 147°
2026-05-07 20:52 -33.83507 -60.12796 29613 ft 495 kts 130°
2026-05-07 20:52 -33.85666 -60.09631 28965 ft 487 kts 119°
2026-05-07 20:53 -33.87615 -60.06323 28511 ft 482 kts 119°
2026-05-07 20:53 -33.89524 -60.03020 28006 ft 479 kts 118°
2026-05-07 20:53 -33.91405 -59.99710 27434 ft 478 kts 118°
2026-05-07 20:53 -33.93240 -59.96441 26925 ft 477 kts 117°
2026-05-07 20:54 -33.95088 -59.93134 26392 ft 476 kts 117°
2026-05-07 20:54 -33.96931 -59.89829 25875 ft 475 kts 117°
2026-05-07 20:54 -33.98770 -59.86525 25320 ft 474 kts 116°
2026-05-07 20:54 -34.00602 -59.83232 24842 ft 473 kts 116°
2026-05-07 20:55 -34.02430 -59.79944 24338 ft 472 kts 116°
2026-05-07 20:55 -34.04258 -59.76652 23825 ft 472 kts 117°
2026-05-07 20:55 -34.06084 -59.73360 23321 ft 472 kts 117°
2026-05-07 20:55 -34.07905 -59.70075 22737 ft 471 kts 117°
2026-05-07 20:56 -34.09697 -59.66840 22228 ft 469 kts 117°
2026-05-07 20:56 -34.11489 -59.63602 21749 ft 457 kts 118°
2026-05-07 20:56 -34.13229 -59.60455 21315 ft 444 kts 118°
2026-05-07 20:56 -34.14916 -59.57399 20846 ft 432 kts 118°
2026-05-07 20:57 -34.16563 -59.54416 20447 ft 422 kts 118°
2026-05-07 20:57 -34.18172 -59.51496 20028 ft 413 kts 119°
2026-05-07 20:57 -34.19771 -59.48590 19578 ft 420 kts 120°
2026-05-07 20:57 -34.21399 -59.45634 19160 ft 424 kts 120°
2026-05-07 20:58 -34.22973 -59.42676 18658 ft 424 kts 119°
2026-05-07 20:58 -34.24554 -59.39665 18258 ft 424 kts 120°
2026-05-07 20:58 -34.26138 -59.36660 17798 ft 424 kts 120°
2026-05-07 20:58 -34.27725 -59.33652 17322 ft 424 kts 120°
2026-05-07 20:59 -34.29304 -59.30654 16846 ft 422 kts 121°
2026-05-07 20:59 -34.30875 -59.27670 16426 ft 419 kts 121°
2026-05-07 20:59 -34.32436 -59.24703 15981 ft 417 kts 121°
2026-05-07 20:59 -34.33964 -59.21793 15537 ft 414 kts 121°
2026-05-07 21:00 -34.35503 -59.18863 15104 ft 411 kts 122°
2026-05-07 21:00 -34.37028 -59.15956 14686 ft 408 kts 122°
2026-05-07 21:00 -34.38542 -59.13067 14249 ft 405 kts 122°
2026-05-07 21:00 -34.40042 -59.10203 13812 ft 402 kts 122°
2026-05-07 21:01 -34.41530 -59.07359 13377 ft 398 kts 122°
2026-05-07 21:01 -34.43005 -59.04538 12900 ft 394 kts 122°
2026-05-07 21:01 -34.44451 -59.01769 12445 ft 381 kts 122°
2026-05-07 21:01 -34.45833 -58.99120 12071 ft 364 kts 122°
2026-05-07 21:02 -34.47143 -58.96610 11697 ft 350 kts 122°
2026-05-07 21:02 -34.48417 -58.94168 11316 ft 338 kts 122°
2026-05-07 21:02 -34.49649 -58.91804 10947 ft 327 kts 122°
2026-05-07 21:02 -34.50854 -58.89489 10601 ft 325 kts 122°
2026-05-07 21:03 -34.52071 -58.87150 10251 ft 330 kts 122°
2026-05-07 21:03 -34.53286 -58.84814 10038 ft 321 kts 122°
2026-05-07 21:03 -34.54444 -58.82587 9901 ft 303 kts 122°
2026-05-07 21:03 -34.55542 -58.80473 9772 ft 291 kts 121°
2026-05-07 21:04 -34.56489 -58.78372 9615 ft 289 kts 109°
2026-05-07 21:04 -34.57136 -58.76034 9303 ft 295 kts 107°
2026-05-07 21:04 -34.57782 -58.73654 8945 ft 298 kts 107°
2026-05-07 21:04 -34.58440 -58.71258 8610 ft 299 kts 107°
2026-05-07 21:05 -34.59100 -58.68864 8292 ft 298 kts 107°
2026-05-07 21:05 -34.59757 -58.66485 7985 ft 297 kts 108°
2026-05-07 21:05 -34.60410 -58.64118 7659 ft 295 kts 108°
2026-05-07 21:05 -34.61060 -58.61756 7342 ft 295 kts 108°
2026-05-07 21:06 -34.61684 -58.59420 6998 ft 295 kts 108°
2026-05-07 21:06 -34.62317 -58.57049 6675 ft 295 kts 108°
2026-05-07 21:06 -34.62949 -58.54680 6350 ft 294 kts 108°
2026-05-07 21:06 -34.63579 -58.52318 6009 ft 295 kts 109°
2026-05-07 21:07 -34.64209 -58.49954 5705 ft 293 kts 109°
2026-05-07 21:07 -34.64827 -58.47627 5599 ft 285 kts 109°
2026-05-07 21:07 -34.65430 -58.45361 5420 ft 279 kts 110°
2026-05-07 21:07 -34.66023 -58.43134 5174 ft 276 kts 110°
2026-05-07 21:08 -34.66608 -58.40935 4893 ft 271 kts 111°
2026-05-07 21:08 -34.67173 -58.38801 4630 ft 269 kts 112°
2026-05-07 21:08 -34.67744 -58.36646 4354 ft 267 kts 113°
2026-05-07 21:08 -34.68306 -58.34528 4191 ft 260 kts 113°
2026-05-07 21:09 -34.68848 -58.32477 4124 ft 249 kts 113°
2026-05-07 21:09 -34.69368 -58.30513 4023 ft 240 kts 114°
2026-05-07 21:09 -34.69869 -58.28612 3885 ft 233 kts 112°
2026-05-07 21:09 -34.69948 -58.26662 3693 ft 235 kts 77°
2026-05-07 21:10 -34.69141 -58.24987 3503 ft 228 kts 39°
2026-05-07 21:10 -34.67808 -58.24117 3345 ft 209 kts
2026-05-07 21:10 -34.66463 -58.24175 3152 ft 183 kts 329°
2026-05-07 21:10 -34.65460 -58.24945 3011 ft 167 kts 307°
2026-05-07 21:11 -34.64676 -58.25947 2817 ft 161 kts 297°
2026-05-07 21:11 -34.64018 -58.27048 2569 ft 161 kts 295°
2026-05-07 21:11 -34.62796 -58.29222 2234 ft 152 kts 294°
2026-05-07 21:12 -34.62216 -58.30262 2112 ft 144 kts 293°
2026-05-07 21:12 -34.61667 -58.31247 1961 ft 138 kts 294°
2026-05-07 21:12 -34.61140 -58.32198 1737 ft 134 kts 294°
2026-05-07 21:12 -34.60615 -58.33144 1679 ft 136 kts 293°
2026-05-07 21:13 -34.60088 -58.34087 1718 ft 138 kts 294°
2026-05-07 21:13 -34.59493 -58.35034 1448 ft 144 kts 298°
2026-05-07 21:13 -34.58952 -58.36042 1127 ft 142 kts 293°
2026-05-07 21:13 -34.58450 -58.37062 843 ft 139 kts 295°
2026-05-07 21:14 -34.57917 -58.38018 587 ft 134 kts 300°
2026-05-07 21:14 -34.57408 -58.38934 369 ft 133 kts 303°
2026-05-07 21:14 -34.56853 -58.39919 202 ft 143 kts 302°
2026-05-07 21:14 -34.56332 -58.40850 36 ft 121 kts 301°
2026-05-07 21:15 -34.55945 -58.41558 27 ft 71 kts 305°
2026-05-07 21:15 -34.55783 -58.41837 27 ft 8 kts 304°
2026-05-07 21:15 -34.55745 -58.41898 28 ft 8 kts 327°
2026-05-07 21:15 -34.55701 -58.41904 28 ft 6 kts
2026-05-07 21:16 -34.55674 -58.41872 29 ft 6 kts 86°
2026-05-07 21:16 -34.55696 -58.41824 29 ft 8 kts 125°
2026-05-07 21:16 -34.55730 -58.41759 28 ft 10 kts 119°
2026-05-07 21:16 -34.55765 -58.41673 29 ft 12 kts 114°
2026-05-07 21:17 -34.55778 -58.41622 29 ft 7 kts 86°
2026-05-07 21:17 -34.55750 -58.41574 29 ft 8 kts 48°
2026-05-07 21:17 -34.55731 -58.41533 29 ft 5 kts 70°
2026-05-07 21:17 -34.55716 -58.41499 29 ft 4 kts 39°
2026-05-07 21:18 -34.55702 -58.41491 29 ft 2 kts 19°
2026-05-07 21:18 -34.55692 -58.41487 29 ft 1 kts 18°
2026-05-07 21:18 -34.55690 -58.41486 29 ft 0 kts 18°